This is the latest recevied weather packets stored in our database for station/object G7GQA-4. If no packets are shown the sender has not sent any weather packets the latest 10 day(s).
| Time | Temp. | Humidity | Pressure | Rain* | Wind** | Luminosity | Snow |
|---|---|---|---|---|---|---|---|
| 1777668924 | 11.67° C | 89% | - | 0 mm | - | 0 W/m² | - |
| 1777668324 | 12.22° C | 88% | - | 0 mm | - | 0 W/m² | - |
| 1777667724 | 12.78° C | 87% | - | 0 mm | - | 0 W/m² | - |
| 1777667124 | 12.78° C | 87% | - | 0 mm | - | 0 W/m² | - |
| 1777666524 | 13.33° C | 85% | - | 0 mm | - | 0 W/m² | - |
| 1777665924 | 13.89° C | 84% | - | 0 mm | - | 0 W/m² | - |
| 1777665324 | 13.89° C | 83% | - | 0 mm | - | 0 W/m² | - |
| 1777664724 | 14.44° C | 84% | - | 0 mm | - | 1 W/m² | - |
| 1777664124 | 14.44° C | 84% | - | 0 mm | - | 2 W/m² | - |
| 1777663524 | 14.44° C | 83% | - | 0 mm | - | 5 W/m² | - |
| 1777662924 | 14.44° C | 82% | - | 0 mm | - | 8 W/m² | - |
| 1777662324 | 15° C | 81% | - | 0 mm | - | 12 W/m² | - |
| 1777661724 | 15° C | 81% | - | 0 mm | - | 15 W/m² | - |
| 1777661124 | 15.56° C | 80% | - | 0 mm | - | 21 W/m² | - |
| 1777660524 | 15.56° C | 79% | - | 0 mm | - | 29 W/m² | - |
| 1777659924 | 16.11° C | 77% | - | 0 mm | - | 46 W/m² | - |
| 1777659324 | 16.11° C | 76% | - | 0 mm | - | 64 W/m² | - |
| 1777658724 | 16.11° C | 76% | - | 0 mm | - | 80 W/m² | - |
| 1777658125 | 16.67° C | 76% | - | 0 mm | - | 87 W/m² | - |
| 1777657524 | 16.67° C | 74% | - | 0 mm | - | 103 W/m² | - |
| 1777656925 | 16.67° C | 73% | - | 0 mm | - | 109 W/m² | - |
| 1777656324 | 16.67° C | 73% | - | 0 mm | - | 71 W/m² | - |
| 1777655724 | 16.67° C | 72% | - | 0 mm | - | 60 W/m² | - |
| 1777655125 | 16.67° C | 72% | - | 0 mm | - | 63 W/m² | - |
| 1777654524 | 16.67° C | 73% | - | 0 mm | - | 88 W/m² | - |
* Rain latest hour (hover to see other rain measurements)
** Current wind speed in m/s (hover to see current wind gust speed)